�N����,����,�~����,�C��,���x,�C��,����,���ϕ���,�ő�u�ԕ���,�ő厞����,���˗�,�I�_���x,�n�����x,�ő啗���N��,DTYPE
"22/07/19","00:10",0.0,24.7,91.8,998.6,331.2,1.0,1.9,338.7,0.00,23.3,25.2,"00:04:48",1
"22/07/19","00:20",0.0,24.5,92.0,998.9,306.4,0.5,0.9,315.9,0.00,23.2,25.1,"00:12:56",1
"22/07/19","00:30",0.2,24.6,92.3,998.6,307.3,0.7,1.6,343.3,0.00,23.3,25.2,"00:24:56",1
"22/07/19","00:40",0.0,24.6,92.5,998.4,315.1,0.7,1.2,342.9,0.00,23.3,25.1,"00:39:04",1
"22/07/19","00:50",0.0,24.7,92.8,998.6,327.0,0.7,1.3,320.4,0.00,23.5,25.1,"00:43:28",1
"22/07/19","01:00",0.2,24.7,92.9,999.1,300.9,0.8,1.4,359.5,0.00,23.5,25.1,"00:50:02",1
"22/07/19","01:10",0.0,24.7,93.1,998.9,319.0,0.7,2.2,239.2,0.00,23.5,25.1,"01:03:20",1
"22/07/19","01:20",0.0,24.8,93.3,998.6,338.8,0.7,1.2,252.5,0.00,23.7,25.0,"01:10:48",1
"22/07/19","01:30",0.0,24.8,93.4,998.4,241.9,0.6,1.7,236.3,0.00,23.7,25.1,"01:22:00",1
"22/07/19","01:40",0.4,24.7,93.5,998.2,244.7,0.6,1.3,246.4,0.00,23.6,24.9,"01:32:24",1
"22/07/19","01:50",0.6,24.8,93.7,997.9,256.1,0.6,1.9,237.4,0.00,23.8,25.1,"01:47:20",1
"22/07/19","02:00",1.0,24.7,93.8,998.2,300.0,0.5,1.3,295.1,0.00,23.7,25.2,"01:52:32",1
"22/07/19","02:10",1.4,24.8,93.9,998.2,347.1,0.7,1.3,348.8,0.00,23.8,25.2,"02:00:56",1
"22/07/19","02:20",0.8,24.7,94.0,998.2,91.0,0.3,1.0,329.4,0.00,23.7,25.0,"02:18:32",1
"22/07/19","02:30",0.2,24.6,94.1,997.9,324.2,0.5,1.0,359.2,0.00,23.6,24.9,"02:26:24",1
"22/07/19","02:40",0.6,24.7,94.2,997.7,357.4,0.5,1.1,21.5,0.00,23.7,25.0,"02:35:04",1
"22/07/19","02:50",0.4,24.7,94.3,997.2,340.4,0.5,1.4,344.3,0.00,23.8,25.1,"02:47:36",1
"22/07/19","03:00",1.0,24.6,94.4,997.4,264.3,0.5,0.8,220.7,0.00,23.7,25.0,"02:58:32",1
"22/07/19","03:10",0.8,24.5,94.4,997.7,159.1,0.2,0.9,254.8,0.00,23.6,25.0,"03:00:16",1
"22/07/19","03:20",0.6,24.5,94.5,997.4,94.0,0.1,0.6,86.4,0.00,23.6,25.0,"03:12:08",1
"22/07/19","03:30",0.4,24.6,94.6,997.4,236.3,0.2,0.8,236.1,0.00,23.7,25.1,"03:25:28",1
"22/07/19","03:40",0.4,24.7,94.7,997.2,98.4,0.5,1.4,54.0,0.00,23.8,25.0,"03:35:04",1
"22/07/19","03:50",0.0,24.7,94.7,997.0,195.5,0.3,1.0,124.1,0.00,23.8,24.9,"03:46:08",1
"22/07/19","04:00",0.2,24.8,94.7,997.2,14.2,0.5,1.4,56.6,0.00,23.9,24.8,"03:55:28",1
"22/07/19","04:10",0.0,24.8,94.9,997.2,47.2,0.5,1.2,21.4,0.00,24.0,25.1,"04:08:56",1
"22/07/19","04:20",0.2,24.9,94.9,997.4,54.4,0.5,1.2,17.0,0.00,24.1,24.9,"04:18:24",1
"22/07/19","04:30",0.8,24.9,95.0,997.2,93.6,0.2,0.9,140.0,0.00,24.1,24.9,"04:29:36",1
"22/07/19","04:40",1.0,24.8,95.0,997.2,127.1,1.0,1.9,111.3,0.00,24.0,24.9,"04:30:40",1
"22/07/19","04:50",3.2,24.8,95.0,997.2,100.5,0.5,1.7,79.9,0.00,24.0,24.9,"04:47:04",1
"22/07/19","05:00",3.6,24.8,95.1,997.2,310.4,0.6,1.7,12.7,0.00,24.0,25.0,"04:57:28",1
"22/07/19","05:10",0.6,24.8,95.2,997.2,63.8,0.5,1.4,60.0,0.00,24.0,25.0,"05:04:02",1
"22/07/19","05:20",0.0,24.8,95.2,997.2,138.3,0.7,2.0,133.5,0.00,24.0,25.0,"05:18:40",1
"22/07/19","05:30",0.0,24.8,95.3,996.7,160.6,0.2,1.1,155.4,0.00,24.0,24.8,"05:21:12",1
"22/07/19","05:40",0.4,24.8,95.3,997.0,78.4,0.5,1.1,163.6,0.00,24.0,24.7,"05:32:40",1
"22/07/19","05:50",0.2,24.9,95.4,996.7,181.5,0.5,1.1,245.2,0.00,24.2,24.7,"05:40:32",1
"22/07/19","06:00",0.0,24.9,95.4,997.0,148.5,0.5,1.2,139.3,0.00,24.2,24.9,"05:54:16",1
"22/07/19","06:10",3.8,24.9,95.4,996.5,125.9,0.5,1.2,126.0,0.00,24.2,24.8,"06:05:12",1
"22/07/19","06:20",1.4,25.0,95.4,997.0,271.2,0.6,1.6,243.4,0.00,24.3,24.8,"06:13:44",1
"22/07/19","06:30",0.0,25.0,95.5,997.2,42.4,0.3,0.9,8.3,0.00,24.3,24.9,"06:20:08",1
"22/07/19","06:40",0.2,25.1,95.5,997.0,75.6,0.3,1.2,120.4,0.00,24.4,24.7,"06:30:24",1
"22/07/19","06:50",0.0,25.2,95.5,997.2,299.6,0.5,1.4,250.2,0.00,24.5,25.0,"06:40:02",1
"22/07/19","07:00",0.0,25.2,95.6,997.2,260.5,1.0,1.9,223.2,0.00,24.5,25.1,"06:59:12",1
"22/07/19","07:10",0.0,25.4,95.7,997.0,325.6,0.8,1.7,341.5,0.01,24.7,24.7,"07:08:00",1
"22/07/19","07:20",0.0,25.4,95.7,997.2,20.4,0.7,1.7,359.1,0.01,24.7,24.9,"07:10:56",1
"22/07/19","07:30",0.0,25.5,95.6,997.2,11.6,0.7,1.9,48.1,0.02,24.8,24.9,"07:26:08",1
"22/07/19","07:40",0.0,25.5,95.7,996.7,9.0,0.8,1.4,45.0,0.02,24.8,24.7,"07:33:28",1
"22/07/19","07:50",0.0,25.7,95.8,996.7,5.5,0.5,1.6,344.5,0.02,25.0,24.8,"07:47:28",1
"22/07/19","08:00",0.0,25.9,95.7,997.0,15.2,0.5,1.1,1.4,0.04,25.2,24.7,"07:51:44",1
"22/07/19","08:10",0.0,25.9,95.6,996.7,158.5,0.5,1.4,128.7,0.05,25.2,24.8,"08:09:28",1
"22/07/19","08:20",0.0,26.1,95.7,997.0,185.7,0.3,1.1,120.6,0.04,25.4,24.8,"08:10:24",1
"22/07/19","08:30",0.0,26.3,95.6,997.0,299.4,0.3,1.0,253.4,0.04,25.6,24.8,"08:20:16",1
"22/07/19","08:40",0.0,26.0,95.6,997.0,202.3,0.6,1.3,219.1,0.02,25.3,24.8,"08:37:52",1
"22/07/19","08:50",0.0,26.3,95.7,997.2,221.2,0.7,1.8,321.3,0.05,25.6,24.8,"08:48:48",1
"22/07/19","09:00",0.4,26.5,95.7,997.0,327.6,0.6,1.7,347.1,0.04,25.8,24.9,"08:51:12",1
"22/07/19","09:10",0.2,26.3,95.6,996.7,359.2,0.7,1.9,358.3,0.04,25.6,24.9,"09:01:20",1
"22/07/19","09:20",0.2,26.3,95.6,997.0,15.9,0.5,1.4,358.8,0.03,25.6,24.7,"09:14:32",1
"22/07/19","09:30",0.4,26.2,95.7,997.0,21.5,0.7,1.8,12.4,0.03,25.5,25.0,"09:26:00",1
"22/07/19","09:40",0.4,26.1,95.7,996.7,13.3,0.7,1.8,5.5,0.03,25.4,24.9,"09:33:44",1
"22/07/19","09:50",0.2,25.9,95.7,996.3,7.4,0.6,1.4,27.5,0.03,25.2,24.9,"09:49:04",1
"22/07/19","10:00",0.2,26.0,95.7,996.7,8.5,0.3,1.0,44.4,0.03,25.3,24.8,"09:50:32",1
"22/07/19","10:10",0.4,26.0,95.7,996.7,328.7,0.3,0.9,346.6,0.02,25.3,24.8,"10:08:32",1
"22/07/19","10:20",0.4,25.9,95.7,996.7,8.7,0.7,1.3,355.5,0.02,25.2,24.7,"10:14:56",1
"22/07/19","10:30",0.4,25.9,95.7,996.5,70.0,0.5,0.9,18.9,0.03,25.2,24.8,"10:23:04",1
"22/07/19","10:40",0.4,25.5,95.6,996.5,90.4,0.6,2.0,345.9,0.00,24.8,25.1,"10:39:44",1
"22/07/19","10:50",2.8,25.3,95.9,996.5,340.9,1.3,2.0,352.3,0.00,24.6,25.0,"10:42:34",1
"22/07/19","11:00",1.8,25.3,95.8,996.5,312.3,0.6,1.3,316.3,0.00,24.6,25.1,"10:53:24",1
"22/07/19","11:10",6.4,25.1,95.8,995.8,193.4,0.8,1.6,199.9,0.00,24.4,25.1,"11:02:24",1
"22/07/19","11:20",4.4,25.1,95.8,996.3,320.1,0.7,1.6,351.0,0.00,24.4,25.2,"11:10:34",1
"22/07/19","11:30",2.2,25.2,95.9,996.3,222.3,0.6,1.3,245.0,0.01,24.5,24.9,"11:22:58",1
"22/07/19","11:40",3.0,25.4,95.9,996.5,188.9,1.5,2.6,204.8,0.00,24.7,25.0,"11:34:00",1
"22/07/19","11:50",15.0,25.3,95.9,997.2,238.1,1.5,2.9,188.0,0.00,24.6,25.1,"11:40:56",1
"22/07/19","12:00",5.2,25.4,95.9,996.7,333.4,1.0,2.4,350.4,0.00,24.7,25.0,"11:57:50",1
"22/07/19","12:10",0.6,25.5,96.0,997.0,351.4,0.7,2.2,350.1,0.02,24.9,25.0,"12:00:32",1
"22/07/19","12:20",0.6,25.7,96.0,996.7,344.2,1.0,2.0,343.4,0.05,25.1,25.1,"12:12:56",1
"22/07/19","12:30",0.4,25.9,96.0,996.7,343.1,1.1,2.1,340.8,0.06,25.3,25.0,"12:29:20",1
"22/07/19","12:40",0.8,25.7,96.0,996.7,326.3,1.3,4.3,346.1,0.07,25.1,25.0,"12:37:20",1
"22/07/19","12:50",0.2,25.7,95.9,996.5,254.9,1.1,2.1,222.4,0.06,25.0,25.0,"12:48:16",1
"22/07/19","13:00",2.4,26.0,95.9,996.5,257.0,1.0,2.4,230.5,0.04,25.3,25.2,"12:55:12",1
"22/07/19","13:10",4.0,25.5,95.9,996.5,324.1,0.8,1.7,186.0,0.02,24.8,25.0,"13:04:32",1
"22/07/19","13:20",1.0,25.6,96.0,996.3,353.3,0.7,2.1,340.1,0.04,25.0,25.0,"13:13:12",1
"22/07/19","13:30",0.2,26.0,95.9,996.3,301.4,0.5,1.0,49.3,0.08,25.3,24.8,"13:20:16",1
"22/07/19","13:40",0.4,26.3,95.8,996.3,208.3,0.2,1.0,201.9,0.09,25.6,24.9,"13:37:04",1
"22/07/19","13:50",0.2,26.4,95.7,996.0,176.4,0.7,1.6,124.7,0.09,25.7,25.0,"13:47:36",1
"22/07/19","14:00",0.0,26.6,95.6,996.3,148.3,0.5,1.2,135.3,0.10,25.9,25.0,"13:51:12",1
"22/07/19","14:10",0.0,26.6,95.6,996.3,149.0,0.5,1.1,139.3,0.06,25.9,24.9,"14:06:32",1
"22/07/19","14:20",0.0,26.3,95.6,995.8,139.5,0.5,1.0,136.6,0.02,25.6,24.9,"14:10:16",1
"22/07/19","14:30",0.0,26.4,95.6,996.0,86.5,0.5,1.3,143.8,0.06,25.7,25.1,"14:20:40",1
"22/07/19","14:40",0.2,26.4,95.6,996.3,352.1,0.8,1.7,341.4,0.06,25.7,25.2,"14:30:48",1
"22/07/19","14:50",0.0,26.2,95.6,996.0,342.9,0.6,1.2,354.7,0.02,25.5,25.0,"14:45:44",1
"22/07/19","15:00",0.2,26.2,95.6,995.6,264.5,0.3,0.9,237.2,0.00,25.5,25.0,"14:54:00",1
"22/07/19","15:10",0.2,26.5,95.6,995.8,264.2,0.5,1.3,231.5,0.05,25.8,24.9,"15:04:40",1
"22/07/19","15:20",0.6,26.5,95.5,995.6,277.9,0.5,1.6,339.7,0.05,25.8,25.1,"15:13:44",1
"22/07/19","15:30",0.2,26.6,95.5,996.0,248.4,0.3,1.8,221.7,0.07,25.9,24.9,"15:25:36",1
"22/07/19","15:40",0.0,26.6,95.5,995.8,3.5,0.2,0.8,49.4,0.03,25.9,25.1,"15:31:28",1
"22/07/19","15:50",0.2,26.6,95.4,995.3,153.6,0.6,1.2,167.1,0.05,25.8,25.0,"15:46:48",1
"22/07/19","16:00",0.0,26.5,95.3,995.6,168.6,0.7,1.4,182.5,0.08,25.7,25.1,"15:54:32",1
"22/07/19","16:10",0.2,26.4,94.9,995.3,231.7,1.0,2.0,174.8,0.07,25.6,25.0,"16:09:44",1
"22/07/19","16:20",0.2,26.9,95.4,995.6,299.9,0.3,1.2,315.7,0.08,26.1,25.1,"16:14:58",1
"22/07/19","16:30",0.0,27.0,95.1,995.6,112.8,0.3,1.2,183.7,0.08,26.2,25.1,"16:28:00",1
"22/07/19","16:40",0.0,26.6,95.1,995.6,7.7,0.6,1.9,328.7,0.01,25.8,25.1,"16:37:52",1
"22/07/19","16:50",0.2,26.4,95.0,996.0,334.8,0.8,1.9,350.7,0.01,25.6,25.0,"16:44:16",1
"22/07/19","17:00",0.0,26.4,95.0,996.0,341.9,0.6,1.3,343.0,0.05,25.6,25.1,"16:53:04",1
"22/07/19","17:10",0.0,26.5,94.8,996.0,355.9,0.6,1.2,351.8,0.04,25.6,25.1,"17:02:56",1
"22/07/19","17:20",0.0,26.3,94.9,995.8,4.0,0.7,1.4,17.0,0.01,25.5,25.2,"17:17:04",1
"22/07/19","17:30",0.0,26.4,94.9,995.6,355.3,0.5,1.2,15.0,0.06,25.6,25.2,"17:24:40",1
"22/07/19","17:40",0.0,26.7,94.8,995.6,224.2,0.3,0.9,242.8,0.04,25.8,25.1,"17:33:36",1
"22/07/19","17:50",0.0,26.6,94.6,995.1,358.4,0.5,1.1,351.7,0.03,25.7,25.0,"17:49:36",1
"22/07/19","18:00",0.0,26.5,94.6,995.3,294.1,0.3,0.9,286.0,0.00,25.6,25.1,"17:58:56",1
"22/07/19","18:10",0.0,26.6,94.6,995.3,311.5,0.3,0.8,314.1,0.01,25.7,25.4,"18:02:32",1
"22/07/19","18:20",0.0,26.4,94.4,995.3,246.8,1.1,3.1,320.0,0.00,25.5,25.2,"18:18:56",1
"22/07/19","18:30",0.0,26.1,94.2,995.3,253.2,2.1,4.5,223.6,0.00,25.1,25.2,"18:27:36",1
"22/07/19","18:40",0.0,26.3,93.6,995.8,258.8,2.1,5.9,232.1,0.00,25.2,25.2,"18:35:12",1
"22/07/19","18:50",0.0,26.3,93.2,996.0,273.0,1.5,3.9,355.1,0.00,25.2,25.2,"18:48:24",1
"22/07/19","19:00",0.0,26.4,92.8,996.0,281.0,1.1,2.5,293.6,0.00,25.2,25.1,"18:50:32",1
"22/07/19","19:10",0.0,26.4,92.4,996.0,293.9,1.0,2.6,281.7,0.00,25.1,25.2,"19:01:20",1
"22/07/19","19:20",0.0,26.5,92.0,996.0,288.6,1.1,3.1,257.9,0.00,25.1,25.1,"19:12:16",1
"22/07/19","19:30",0.0,26.4,91.6,996.0,292.6,1.3,3.4,259.8,0.00,25.0,25.2,"19:28:08",1
"22/07/19","19:40",0.0,26.5,91.1,996.5,302.4,1.2,3.1,338.2,0.00,25.0,25.2,"19:35:52",1
"22/07/19","19:50",0.0,26.5,90.8,996.3,292.2,1.1,2.6,332.3,0.00,24.9,25.1,"19:44:40",1
"22/07/19","20:00",0.0,26.5,90.5,996.5,299.6,1.2,2.7,292.7,0.00,24.9,25.2,"19:50:40",1
"22/07/19","20:10",0.0,26.6,90.0,996.5,288.3,1.6,4.1,263.1,0.00,24.9,25.2,"20:05:12",1
"22/07/19","20:20",0.0,26.8,89.3,996.3,274.9,1.7,4.5,232.7,0.00,24.9,25.1,"20:16:56",1
"22/07/19","20:30",0.0,26.9,88.7,996.5,253.2,1.8,5.9,243.5,0.00,24.9,25.1,"20:23:20",1
"22/07/19","20:40",0.0,26.9,88.1,996.5,268.9,1.2,2.6,253.6,0.00,24.8,25.2,"20:32:48",1
"22/07/19","20:50",0.0,26.9,87.8,996.5,265.3,1.5,3.4,243.4,0.00,24.7,25.1,"20:40:02",1
"22/07/19","21:00",0.0,26.9,87.5,997.0,293.0,2.0,4.2,243.1,0.00,24.7,25.2,"20:55:44",1
"22/07/19","21:10",0.0,26.8,87.5,997.0,315.8,1.1,1.8,339.3,0.00,24.6,25.2,"21:00:32",1
"22/07/19","21:20",0.0,26.8,87.7,997.2,280.2,0.8,2.1,289.6,0.00,24.6,25.0,"21:19:20",1
"22/07/19","21:30",0.2,26.6,88.1,997.7,312.5,1.0,1.7,257.6,0.00,24.5,25.2,"21:20:08",1
"22/07/19","21:40",0.2,26.4,88.6,998.2,331.9,0.8,1.8,246.2,0.00,24.4,24.9,"21:31:12",1
"22/07/19","21:50",0.2,26.2,89.3,998.2,352.6,1.2,2.6,351.5,0.00,24.3,25.2,"21:43:04",1
"22/07/19","22:00",0.4,26.0,89.8,998.2,353.9,0.7,1.6,17.8,0.00,24.2,25.0,"21:55:20",1
"22/07/19","22:10",1.2,25.9,90.5,998.2,337.5,0.7,1.3,342.7,0.00,24.3,25.1,"22:08:00",1
"22/07/19","22:20",1.2,25.7,90.8,998.6,236.0,0.6,1.3,241.9,0.00,24.1,25.2,"22:10:08",1
"22/07/19","22:30",0.2,25.6,91.2,998.6,161.6,0.5,1.4,225.0,0.00,24.1,25.1,"22:25:12",1
"22/07/19","22:40",0.2,25.5,91.8,998.9,208.1,0.7,1.8,200.0,0.00,24.1,25.1,"22:32:08",1
"22/07/19","22:50",0.0,25.2,92.0,998.9,150.7,0.3,1.1,237.9,0.00,23.8,25.1,"22:40:16",1
"22/07/19","23:00",0.0,25.1,92.4,999.1,122.5,0.3,1.0,124.7,0.00,23.8,25.0,"22:53:20",1
"22/07/19","23:10",0.0,25.1,92.5,999.3,350.5,0.7,1.1,359.6,0.00,23.8,25.2,"23:07:28",1
"22/07/19","23:20",0.0,25.2,92.7,998.9,357.1,0.7,1.6,343.9,0.00,24.0,25.1,"23:14:56",1
"22/07/19","23:30",0.0,25.0,92.9,998.9,40.3,0.5,1.0,314.7,0.00,23.8,24.9,"23:22:32",1
"22/07/19","23:40",0.0,24.9,93.2,999.1,30.5,0.5,1.1,15.0,0.00,23.8,25.0,"23:37:28",1
"22/07/19","23:50",0.0,24.7,93.4,999.1,2.9,0.6,1.4,355.4,0.00,23.6,25.0,"23:49:04",1
"22/07/19","24:00",0.0,24.6,93.6,999.6,9.2,0.8,2.2,14.7,0.00,23.5,25.2,"23:55:36",1
